Miscellaneous Local Product
Issued by NWS Hastings, NE

Home | Current Version | Previous Version | Graphics & Text | Print | Product List | Glossary On
Versions: 1 2 3 4 5 6 7 8 9 10 11 12 13 14 15 16 17 18 19 20 21 22 23 24 25 26 27 28 29 30 31 32 33 34 35 36 37 38 39 40 41 42 43 44 45 46 47 48 49 50
867
AXUS43 KGID 242002
MISGRI

GID CWA HOURLY WEATHER ROUNDUP
NATIONAL WEATHER SERVICE HASTINGS NE
300 PM CDT FRI MAR 24 2017

NOTE: "FAIR" INDICATES FEW OR NO CLOUDS BELOW 12,000 FEET WITH NO
SIGNIFICANT WEATHER AND/OR OBSTRUCTIONS TO VISIBILITY.

...SOUTH CENTRAL NEBRASKA...

CITY           SKY/WX    TMP DP  RH WIND       PRES   REMARKS
GRAND ISLAND   LGT RAIN  39  39 100 N21       29.97S FOG     WCI  29
HASTINGS       CLOUDY    41  38  89 N21G29    29.94R FOG
KEARNEY        CLOUDY    39  36  87 N22G28    29.95F WCI  29
ORD            CLOUDY    40  36  86 N20G26    29.99F WCI  30
YORK           CLOUDY    41  41 100 N23G31    29.93F
AURORA         CLOUDY    40  39  95 N16G23    29.95S FOG     WCI  32
LEXINGTON      LGT RAIN  40  38  91 N16       29.99R WCI  32
HOLDREGE       CLOUDY    41  39  92 N18       29.94S
HEBRON         CLOUDY    48  43  83 NE21G28   29.89R

...NEBRASKA PANHANDLE...

CITY           SKY/WX    TMP DP  RH WIND       PRES   REMARKS
CHADRON        PTSUNNY   57  36  45 NE9       30.09F
ALLIANCE       NOT AVBL
SCOTTSBLUFF    MOSUNNY   59  31  34 NE16G26   30.10F
SIDNEY         PTSUNNY   51  35  54 N22G30    30.08F

...WESTERN AND NORTH CENTRAL NEBRASKA...

CITY           SKY/WX    TMP DP  RH WIND       PRES   REMARKS
VALENTINE      MOSUNNY   57  33  40 NE23G29   30.06F
AINSWORTH      CLOUDY    49  39  68 NE16G22   30.06F
ONEILL         DRIZZLE   41  39  93 N16       30.05F
BROKEN BOW     LGT RAIN  42  39  89 N23G33    29.97F
IMPERIAL       LGT RAIN  43  39  86 N21G28    30.03R
NORTH PLATTE   CLOUDY    46  39  76 NE29G43   29.98R
MCCOOK         LGT RAIN  41  41 100 N15       29.99R FOG

...EASTERN NEBRASKA...

CITY           SKY/WX    TMP DP  RH WIND       PRES   REMARKS
NORFOLK        CLOUDY    40  37  89 N18       30.00S WCI  31
SO SIOUX CITY  CLOUDY    41  39  93 NE15      30.02S
TEKAMAH        CLOUDY    44  41  89 N16       29.98S
COLUMBUS       CLOUDY    41  37  87 N16G23    29.98F
ALBION         CLOUDY    41  37  86 N17G25    29.99F
OMAHA EPPLEY   CLOUDY    47  42  83 N15       29.93F
OFFUTT AFB     CLOUDY    48  44  85 N15       29.91F
MILLARD        CLOUDY    48  45  88 N5G17     29.93F
LINCOLN        CLOUDY    46  42  86 NE25      29.93F
NEBRASKA CITY  CLOUDY    52  47  83 N18G28    29.87S
BEATRICE       CLOUDY    48  46  91 NE17G26   29.87R
FALLS CITY     CLOUDY    64  54  69 SE8       29.82F

...NORTHERN KANSAS...

CITY           SKY/WX    TMP DP  RH WIND       PRES   REMARKS
GOODLAND       CLOUDY    40  39  97 N28G36    29.98R WCI  29
HILL CITY      CLOUDY    45  42  89 NE23G31   29.91S
NORTON         CLOUDY    43  36  75 N17G28    29.92S
RUSSELL        MOSUNNY   64  46  52 N26G36    29.78R
CONCORDIA      MOSUNNY   56  48  74 N18G28    29.83R
SALINA         MOSUNNY   78  33  19 SE7G17    29.74F
TOPEKA         CLOUDY    67  57  70 SE12      29.82R



USA.gov is the U.S. government's official web portal to all federal, state and local government web resources and services.